Location: Ash Shall?l al Awwal
(24.0167°N, 32.8667°E)
Time: 18:29:54
(UTC+00:00)

ARGOS - Pass Details

Date: 02 March 2021
Orbit: 819 x 835 km, 98.4° (Epoch: 09 April)

Event Time Altitude Azimuth Distance (km) Brightness Sun altitude
Rises 16:20:38 0° 144° (SE) 3,360 6.0 -7.4°
Reaches altitude 10° 16:23:12 10° 135° (SE) 2,431 5.2 -8.0°
Maximum altitude 16:27:57 33° 73° (ENE) 1,375 3.8 -9.0°
Drops below altitude 10° 16:32:44 10° 11° (N) 2,444 5.5 -10.1°
Sets 16:35:18 0° 2° (N) 3,381 6.3 -10.7°
